Flag for United Kingdom Weather past 2 weeks in Cheltenham, England, United Kingdom

Now
59 °F

Sunny.


Feels Like: 59 °F
Forecast: 47 / 67 °F
Wind: No wind

Location: Staverton Private

Current Time: Jul 31, 2015 at 10:22:27 AM

Latest Report: Jul 31, 2015 at 9:50 AM


Visibility: 10 mi

Pressure: 30.09 "Hg

Humidity: 63%

Dew point: 46 °F

Location of CheltenhamLocation

Historic Weather in Cheltenham — Graph

°F

Cheltenham temperature yesterday

Maximum temperature yesterday: 66 °F (at 5:50 PM)
Minimum temperature yesterday: 52 °F (at 6:50 AM)
Average temperature yesterday: 61 °F

Past Weeks' High & Low Weather Summary

 TemperatureHumidityPressure
High75 °F (Jul 16, 4:20 PM)100% (Jul 24, 4:20 PM)30.12 "Hg (Jul 24, 4:20 PM)
Low52 °F (Jul 29, 6:50 AM)33% (Jul 19, 4:20 PM)29.39 "Hg (Jul 26, 5:50 PM)
Average64 °F68%29.86 "Hg
* Reported Jul 16 9:20 AM — Jul 31 9:20 AM, Cheltenham, Weather by CustomWeather, © 2015

Note: Actual official high and low records may vary slightly from our data, if they occured in-between our weather recording intervals... More about our weather records

Advertising

Cheltenham weather history for previous 24 hours

 ConditionsComfort  
Time TempWeatherWind HumidityBarometerVisibility
9:20 AM
Fri, Jul 31
57 °FSunny.No wind67%30.12 "Hg10 mi
8:20 AM52 °FSunny.No wind82%30.12 "Hg10 mi
7:20 PM
Thu, Jul 30
64 °FPassing clouds.3 mph46%30.12 "HgN/A
6:50 PM64 °FPassing clouds.6 mph46%30.12 "HgN/A
6:20 PM64 °FPassing clouds.5 mph46%30.12 "HgN/A
5:50 PM66 °FScattered clouds.6 mph40%30.12 "HgN/A
5:20 PM64 °FScattered clouds.7 mph43%30.12 "HgN/A
4:50 PM64 °FScattered clouds.7 mph46%30.12 "HgN/A
4:20 PM63 °FScattered clouds.7 mph52%30.12 "HgN/A
3:50 PM64 °FScattered clouds.7 mph43%30.12 "HgN/A
3:20 PM64 °FScattered clouds.8 mph49%30.12 "HgN/A
2:50 PM64 °FScattered clouds.7 mph46%30.12 "HgN/A
2:20 PM64 °FScattered clouds.10 mph49%30.12 "HgN/A
1:50 PM63 °FScattered clouds.9 mph49%30.12 "HgN/A
1:20 PM61 °FScattered clouds.10 mph52%30.12 "HgN/A
12:50 PM63 °FScattered clouds.8 mph49%30.09 "HgN/A
12:20 PM63 °FScattered clouds.7 mph52%30.09 "HgN/A
11:50 AM61 °FScattered clouds.9 mph52%30.09 "HgN/A
11:20 AM61 °FScattered clouds.7 mph52%30.09 "HgN/A
10:50 AM59 °FScattered clouds.9 mph59%30.09 "HgN/A
10:20 AM61 °FPassing clouds.8 mph55%30.09 "HgN/A
Weather by CustomWeather, © 2015

See weather overviewHow to use our weather pages